STARLINK-33814 (63582 NORAD) Tracking and Keplerian Element Data

This shows tracking and keplerian element data for the satellite.

Feedback or suggestion? Click here.




ElementValue
Catalog63582
NameSTARLINK-33814
Epoch Orbit3967
Epoch Day354.18135723
Epoch Year2025
RAAN50.4556
Inclination42.9975
Eccentricity7.73E-05
Argument of Perigee271.1691
Mean Anonmoly88.9072
Mean Motion15.27585915
Decay Rate0.00020143
L11 63582U 25076P 25354.18135723 .00020143 00000+0 73937-3 0 9994
L22 63582 42.9975 50.4556 0000773 271.1691 88.9072 15.27585915 39678



Live tracking and technical data element details for STARLINK-33814 (NORAD 63582). STARLINK-33814 can be tracked NOW for your location showing map with azimuth and elevation plus other details from your city location.







IsCatalogInMostPopularTable: catalog: 63582, numindb: 2
Update: records affected: 1



GetName: 63582 STARLINK-33814

Hit Count: updated at: Sat, 07 Feb 2026 07:19:32 GMT